Temp
17 17 17 17 18 18 18 18 18 18 18 19 18 18 18 18 18 18 18 19 19 19 19 19 19 19 19 19 19 19 19 19 20 19 18 17 17 18 18 19 19 19 20 20 21 21 20 20 20 20 21 20 18 17 18 17 16 18 19 17 18 17 16 17 17 16 16 17 16 14 13 15 15 12 9 9 9 8 7 6 6 5 5 5 5 5 6 6
17 17 18 18 18 18 18 18 18 18 18 19 18 18 18 18 18 19 19 19 19 19 19 19 19 19 19 19 19 19 19 20 19 18 18 18 18 18 19 19 19 19 19 20 20 20 20 20 17 18 20 20 17 18 19 16 16 18 17 17 18 17 17 16 17 16 16 17 16 14 12 13 14 13 11 12 10 8 9 7 5 5 5 5 5 5 5 5
17 18 18 18 18 18 18 18 18 18 18 19 18 18 18 18 19 19 19 19 19 19 19 20 20 20 20 20 20 20 20 20 19 18 18 18 18 19 19 19 19 19 19 19 20 19 19 19 17 18 20 20 17 17 19 17 17 17 16 18 18 17 17 15 15 16 15 15 15 14 12 12 12 12 11 12 10 9 10 8 6 6 5 5 4 4 5 5
17 17 18 18 18 18 18 18 18 18 19 19 19 19 19 19 19 19 19 19 19 19 19 20 20 20 20 20 20 20 20 19 18 17 18 18 19 19 19 19 19 19 19 19 19 18 18 17 16 18 20 20 17 17 18 17 16 16 16 19 17 15 16 16 15 15 14 13 14 14 12 13 11 10 11 11 11 11 10 9 8 7 4 4 4 3 4 4
17 17 17 17 17 17 18 18 18 18 19 19 19 19 19 19 19 19 19 20 20 20 20 20 20 20 20 20 20 20 20 19 18 18 18 18 19 19 19 19 19 19 19 19 18 18 18 16 16 19 19 19 18 18 18 15 14 16 17 16 15 13 16 17 14 14 13 12 13 13 13 13 10 10 11 11 14 13 10 8 7 6 4 4 4 3 4 3
17 17 17 17 17 17 17 18 18 18 19 19 19 19 19 19 19 19 20 20 20 20 20 20 20 20 20 20 20 20 20 19 18 18 18 18 19 19 19 20 19 19 19 19 18 18 18 17 18 19 19 18 18 18 17 13 13 17 17 15 14 14 15 16 14 13 12 13 14 13 13 11 11 12 10 10 12 10 7 6 5 4 4 4 4 3 3 3
17 17 17 17 17 17 17 18 18 19 19 19 19 19 19 19 19 20 20 20 20 20 20 20 20 20 20 20 20 19 18 18 18 18 18 18 19 19 20 20 19 20 20 19 18 18 18 19 19 18 18 18 16 16 16 14 14 17 17 16 14 13 14 14 13 12 12 14 13 11 12 11 13 12 9 9 8 5 4 4 3 3 3 3 3 3 2 2
17 17 17 17 17 17 18 18 19 19 19 19 19 19 19 19 20 20 20 20 20 20 20 20 20 20 20 20 20 18 17 17 18 18 18 19 20 19 20 20 19 20 19 17 16 17 18 19 18 16 18 17 16 16 15 15 16 16 16 15 14 14 14 13 12 12 12 12 11 11 12 12 11 10 9 8 5 3 4 3 2 2 2 3 4 3 2 1
17 17 17 17 17 18 18 18 19 19 19 19 19 19 19 20 20 20 20 20 20 20 20 20 20 20 20 19 18 18 17 17 18 17 18 19 20 19 20 19 19 20 19 17 16 17 18 18 17 17 18 16 15 16 14 16 17 15 15 14 15 14 13 13 13 13 12 12 11 12 14 12 8 9 10 6 4 4 3 3 3 3 3 4 4 2 1 1
17 17 17 17 18 18 18 19 19 19 20 20 19 19 20 20 20 20 20 20 20 20 20 20 20 20 20 18 17 18 17 18 17 17 18 19 20 20 20 20 19 19 18 17 16 16 16 17 15 15 17 16 15 15 14 15 15 13 13 13 14 14 12 12 14 13 12 12 11 13 14 12 9 10 11 5 3 4 3 4 3 3 4 3 3 1 1 1
17 17 17 17 17 18 19 19 19 20 20 20 20 20 20 20 20 20 20 20 20 20 20 20 20 20 19 17 17 17 17 18 17 17 19 20 20 20 19 19 19 19 18 17 15 14 14 15 13 14 17 16 15 15 14 13 13 12 13 14 14 14 13 12 13 13 12 13 11 11 13 11 10 11 10 5 4 4 3 4 3 4 4 2 2 1 1 1
17 17 17 17 17 18 19 19 20 20 20 20 20 20 20 20 20 21 20 20 20 20 20 20 20 20 19 17 17 17 18 17 17 18 19 20 20 19 19 19 19 19 19 17 15 15 15 15 15 17 16 15 15 16 14 12 12 12 13 15 16 15 15 12 12 13 12 13 11 11 12 12 12 10 7 4 4 4 3 3 3 3 2 2 2 1 1 1
17 17 17 18 18 18 19 19 20 20 20 20 20 20 20 20 20 21 21 21 21 20 20 20 20 20 19 18 17 18 18 17 18 20 20 19 19 18 18 19 19 18 19 18 16 16 16 16 17 16 14 15 16 14 13 12 12 13 12 13 15 15 16 12 11 12 13 12 11 12 12 12 12 8 5 4 4 3 3 3 3 2 1 1 1 1 1 1
17 18 18 18 18 18 19 19 19 20 20 20 20 20 20 20 20 20 21 21 20 20 20 20 20 20 18 18 18 18 18 18 19 19 19 19 19 19 18 18 19 18 18 18 17 16 17 17 16 14 12 13 14 12 14 13 12 14 12 12 12 13 16 14 10 12 13 11 11 13 12 12 12 7 5 4 3 4 3 3 2 1 1 1 1 1 1 1
18 18 18 19 19 18 19 19 19 19 20 21 20 21 20 20 20 20 21 21 20 20 20 20 20 20 18 18 19 18 18 18 18 17 17 18 18 18 18 18 18 18 18 17 17 17 16 16 15 15 13 11 12 14 15 15 13 12 13 14 12 11 13 13 10 10 12 11 11 13 11 12 11 6 4 4 4 4 3 2 2 1 1 1 1 1 1 1
18 18 19 19 19 19 19 19 19 19 20 21 21 21 20 21 20 20 21 20 21 20 21 20 19 19 19 18 19 18 17 17 17 16 16 17 17 17 18 18 18 18 18 17 17 17 16 16 13 12 13 12 12 14 15 16 14 11 12 13 12 11 11 11 11 9 9 10 11 12 11 11 9 4 4 4 4 3 2 2 1 1 1 1 1 1 1 1
19 19 19 20 20 20 20 20 19 19 20 20 20 20 20 20 20 21 21 20 21 21 20 20 18 19 19 18 18 17 16 16 16 16 17 17 16 17 18 18 16 16 17 17 18 17 15 14 11 11 12 11 10 13 15 15 13 12 11 12 11 11 10 11 11 9 9 11 11 10 10 10 7 3 3 3 3 3 2 2 1 1 1 1 1 1 1 1
19 19 19 20 20 20 20 20 19 19 20 20 20 21 21 21 21 21 20 21 21 20 20 19 18 19 19 17 16 15 15 16 16 16 17 17 17 17 17 16 14 15 17 18 17 15 13 13 13 14 13 11 10 12 14 13 12 12 11 11 10 9 9 10 10 10 9 10 9 9 9 8 4 3 3 3 3 3 2 1 1 1 1 1 1 0 1 1
19 19 19 20 20 21 20 20 20 20 20 20 21 21 21 21 21 20 19 19 19 19 19 17 16 18 18 16 15 15 16 16 16 16 16 16 16 17 16 14 14 15 17 18 16 13 12 14 14 13 12 11 10 10 12 12 11 11 10 9 9 9 9 9 10 10 8 9 9 9 8 5 3 2 3 2 2 2 1 1 1 1 1 1 1 1 1 1
19 20 20 20 20 21 21 21 21 21 21 21 21 21 21 21 20 19 16 16 15 15 16 16 15 16 16 16 15 16 16 17 16 14 15 15 15 17 15 13 15 15 14 15 15 11 11 14 13 11 11 10 10 9 9 9 8 9 9 9 9 8 8 9 10 9 8 9 10 9 7 3 2 2 2 2 2 2 1 1 1 1 1 1 1 1 1 1
19 20 20 20 20 21 21 21 21 21 21 21 21 20 20 19 19 18 16 14 13 13 15 14 14 15 16 15 14 14 15 17 16 13 15 15 15 17 15 13 16 16 11 10 12 11 12 13 12 10 10 8 8 8 8 9 9 9 9 9 8 8 9 10 10 9 8 9 9 9 6 2 2 2 2 2 2 1 1 1 1 1 1 1 1 1 1 0
19 20 20 20 20 21 21 21 21 22 21 21 21 18 16 16 18 18 17 17 15 13 14 14 14 15 15 15 14 14 14 15 16 14 14 15 15 16 14 13 15 14 11 11 12 14 13 13 11 9 7 6 7 7 8 10 9 9 9 9 9 9 9 10 10 9 8 8 8 8 5 2 2 1 2 2 1 1 1 1 1 1 1 1 0 0 -0 -0
20 20 20 20 20 21 21 21 21 21 21 21 20 17 15 16 17 17 17 18 17 15 14 15 15 15 15 15 14 15 15 14 14 14 13 14 14 13 13 13 14 13 12 12 14 14 13 13 10 7 7 8 10 9 10 10 9 9 9 8 9 9 9 9 10 9 8 8 7 6 4 2 1 1 1 1 1 1 1 1 1 1 1 0 -0 -0 -1 -1
20 20 20 20 20 21 21 21 21 21 21 20 19 17 17 18 17 17 17 16 17 16 15 14 14 15 15 15 14 15 15 13 13 13 12 12 12 12 12 12 13 14 12 10 12 13 14 11 8 7 9 11 12 11 10 9 9 9 9 9 10 10 9 8 8 8 8 7 6 6 5 3 2 1 1 1 1 1 0 0 0 0 0 0 -0 -0 -1 -1
20 21 21 21 21 21 21 21 21 20 19 19 19 18 18 18 17 18 18 17 18 17 15 14 14 15 15 14 14 13 13 13 12 13 12 11 11 12 12 10 12 14 12 10 11 13 13 9 7 10 12 11 12 12 10 9 8 8 9 10 10 9 8 7 7 7 7 7 6 6 6 5 2 1 1 1 1 0 0 0 -0 -0 -0 -0 -0 -1 -1 -1
21 21 21 21 21 21 21 21 19 19 19 18 18 18 18 18 17 18 19 19 19 17 17 17 17 16 16 14 12 10 13 15 13 12 12 11 10 12 13 11 11 13 11 10 11 12 11 9 8 11 11 11 12 11 10 9 8 9 10 9 8 8 7 7 7 7 6 7 7 7 6 5 3 1 2 1 0 0 0 -0 -1 -1 -1 -1 -1 -1 -1 -2
21 21 21 21 21 21 22 21 19 19 20 19 18 18 18 18 18 18 19 19 19 17 17 18 17 17 17 14 10 12 16 15 13 13 12 11 10 11 13 12 11 12 9 9 13 13 11 11 10 10 11 11 11 11 10 8 8 10 10 7 7 8 7 8 7 6 6 6 7 7 6 6 5 4 2 1 1 0 -0 -1 -1 -1 -1 -1 -1 -1 -2 -2
21 21 21 21 21 22 22 21 20 19 19 19 18 18 18 17 18 18 20 20 18 17 16 16 17 17 15 12 11 14 14 12 14 14 11 11 11 11 13 12 11 11 9 10 15 13 10 11 11 10 11 11 11 11 10 8 8 10 9 7 7 7 7 7 6 6 5 5 6 7 6 6 6 5 2 1 1 1 0 -1 -1 -1 -1 -1 -1 -2 -2 -2
20 20 20 20 21 21 21 21 20 19 19 18 18 18 17 17 18 18 20 20 18 17 16 16 17 15 13 13 13 12 12 11 12 12 10 11 11 10 11 10 9 10 9 10 13 12 9 9 9 9 11 11 11 10 9 8 9 9 8 7 7 7 7 6 6 6 5 5 6 7 6 5 5 4 2 1 1 1 0 -1 -1 -0 -1 -1 -2 -2 -2 -2
19 20 20 20 20 20 20 19 19 19 18 17 18 17 17 17 18 19 20 19 17 16 15 15 15 12 11 14 15 12 12 11 9 10 10 10 10 9 9 7 8 10 10 10 12 11 9 7 7 9 10 9 10 10 9 8 8 9 8 8 8 8 7 6 5 6 6 6 6 6 6 4 4 5 4 1 1 1 -0 -1 -1 -1 -1 -1 -2 -2 -2 -2
18 19 19 20 19 19 19 18 17 18 17 17 17 16 17 18 18 20 19 17 16 15 14 14 12 11 11 12 13 11 11 11 9 10 10 9 8 8 8 8 8 11 12 11 11 11 9 9 9 8 8 8 9 9 9 8 6 7 8 7 8 8 7 7 6 6 6 6 6 6 5 4 4 5 4 -0 -1 -0 -1 -1 -1 -1 -1 -2 -2 -2 -2 -2
18 18 18 19 18 18 18 17 16 17 17 17 16 15 18 19 18 18 17 16 17 15 13 13 11 11 11 10 12 11 10 11 10 9 9 8 7 5 6 7 7 11 13 10 9 10 11 11 10 9 8 8 9 9 9 8 7 7 7 7 7 6 6 6 5 5 5 5 6 6 5 4 5 5 2 -2 -1 -0 -1 -1 -1 -1 -2 -2 -2 -2 -2 -2
17 17 18 18 18 18 17 16 16 16 16 17 17 17 20 21 19 16 15 16 16 12 11 11 10 10 10 12 12 10 9 11 10 9 8 8 8 7 6 5 6 10 11 9 8 9 11 11 10 10 9 8 9 9 8 8 8 7 7 7 6 5 4 4 4 5 5 6 7 6 4 4 5 5 1 -2 -1 -0 -1 -1 -1 -2 -2 -2 -2 -2 -2 -2
17 17 17 17 17 17 16 16 16 16 16 17 19 20 20 20 17 13 14 15 13 10 10 10 10 11 11 13 11 9 10 11 9 10 9 9 9 9 8 7 6 7 8 8 8 7 10 11 11 11 10 9 9 8 7 7 7 6 7 7 6 6 4 3 4 4 3 4 5 5 4 4 5 3 -0 -1 -0 -1 -1 -1 -2 -1 -2 -2 -2 -2 -2 -2
17 17 17 16 16 16 15 16 16 16 17 18 19 20 20 18 15 14 15 13 11 11 10 9 11 14 14 12 10 8 11 11 9 9 9 9 8 7 7 6 5 5 7 8 7 6 9 10 11 10 8 8 9 8 7 7 7 6 6 6 6 6 6 5 4 4 3 3 4 4 4 5 4 1 -1 -1 -1 -1 -0 -1 -1 -1 -1 -1 -2 -2 -2 -2
18 17 17 16 15 15 16 16 16 16 17 19 21 19 17 15 14 13 12 11 10 10 11 11 12 14 15 13 11 10 10 10 10 10 9 8 7 7 6 5 5 4 6 7 7 7 8 9 10 9 8 9 8 7 7 7 8 8 6 7 6 5 5 5 4 4 4 2 3 4 4 4 4 0 -1 -1 -1 0 0 -0 -1 -1 -1 -1 -2 -2 -2 -2
18 17 16 15 15 16 16 16 17 17 17 20 21 17 13 11 11 10 9 8 8 8 11 15 13 12 13 13 13 12 10 10 10 11 10 9 8 7 6 5 4 4 4 5 6 6 6 8 9 8 9 9 7 6 7 5 7 8 6 6 6 5 5 4 3 3 2 2 3 4 4 3 4 2 -1 -1 -0 0 0 -0 -1 -1 -2 -2 -2 -2 -2 -2
18 17 16 15 15 15 15 16 16 16 17 18 16 12 11 10 9 8 7 7 7 8 12 14 12 11 12 12 12 10 10 12 11 10 10 9 9 8 6 6 5 4 3 3 6 6 5 7 8 6 7 8 6 7 8 6 6 7 7 6 5 4 4 3 2 1 1 2 3 4 3 3 3 3 0 -0 0 0 0 -0 -1 -2 -2 -2 -2 -2 -3 -3
18 18 17 15 15 16 16 17 15 16 19 18 14 12 11 10 8 6 6 6 7 10 12 12 11 11 11 11 11 9 9 10 10 10 10 10 9 8 6 5 5 4 2 3 5 5 4 7 8 6 6 7 8 8 8 7 6 6 6 6 5 5 3 1 1 1 1 1 1 2 3 3 3 3 1 0 1 1 -0 -1 -2 -2 -2 -2 -3 -3 -3 -3
17 19 18 15 15 16 16 17 15 16 18 15 11 11 10 9 8 5 4 6 8 10 11 11 10 11 11 10 9 9 8 9 9 9 10 9 9 8 5 4 5 4 3 3 4 4 4 6 7 7 6 7 8 8 7 7 6 6 6 5 4 4 3 1 1 1 1 0 1 1 1 2 3 2 1 1 1 1 -1 -2 -2 -2 -2 -3 -3 -3 -3 -3
16 20 18 15 16 16 16 17 13 11 12 11 10 10 9 9 9 6 4 4 7 8 9 10 10 10 11 10 9 8 8 9 8 9 9 8 9 9 5 2 3 3 3 4 5 4 5 5 5 5 5 6 8 8 7 6 6 6 5 4 4 3 2 1 0 1 1 0 0 -1 -1 1 3 2 1 2 1 -0 -1 -2 -2 -3 -3 -3 -3 -3 -3 -4
17 20 18 15 17 16 16 15 9 6 10 10 9 9 9 9 9 8 6 5 7 8 8 9 9 9 9 10 9 8 8 9 9 9 9 8 8 8 5 2 2 2 3 5 5 3 3 4 3 4 5 7 8 6 4 5 6 6 5 4 3 2 1 0 -1 0 0 -0 0 -0 -1 1 3 2 2 2 1 -1 -2 -2 -3 -3 -3 -3 -3 -3 -4 -4
18 19 17 15 16 16 16 16 10 8 10 8 7 7 7 8 9 9 8 8 8 9 10 10 9 9 9 8 8 8 9 9 9 9 8 7 7 6 4 2 1 2 4 5 5 3 3 3 4 5 6 7 7 5 4 5 6 6 4 3 2 1 0 -0 -1 -1 -1 -2 -1 -1 -2 0 2 2 2 1 -0 -1 -2 -2 -3 -4 -4 -4 -4 -4 -5 -5
17 16 16 16 17 17 19 18 14 11 9 8 9 9 8 8 9 9 9 9 9 9 11 11 9 9 9 7 8 9 9 10 10 8 7 7 6 5 2 0 1 3 5 5 4 4 5 5 5 5 5 6 6 6 5 6 6 5 4 2 0 -0 -0 -1 -1 -2 -2 -1 -1 -2 -2 0 2 2 1 0 -1 -2 -3 -3 -4 -4 -4 -4 -5 -5 -5 -6
16 16 16 16 14 14 15 13 12 12 10 10 11 10 9 9 8 8 9 8 7 7 10 10 8 8 8 7 8 8 8 10 10 8 7 7 6 4 3 1 1 3 4 2 2 4 5 5 5 5 5 4 4 5 5 6 5 4 4 1 -0 -1 -2 -1 -1 -2 -2 -1 -1 -2 -2 -0 1 1 0 -1 -2 -3 -3 -4 -4 -4 -4 -5 -5 -6 -6 -7
19 19 18 17 13 11 10 7 10 13 11 12 13 10 10 11 8 6 8 8 7 7 9 9 7 8 8 8 9 9 8 8 8 8 8 7 7 5 2 2 2 2 2 1 1 3 4 4 4 6 5 4 5 5 5 5 3 3 2 1 -0 -1 -2 -2 -1 -2 -2 -2 -2 -1 -1 -1 -1 -1 -1 -2 -3 -4 -4 -4 -5 -5 -5 -6 -6 -7 -7 -7
19 18 15 17 16 14 13 10 10 13 11 12 13 10 10 11 10 8 8 8 8 7 8 8 7 9 10 9 9 9 8 7 7 7 7 6 6 5 2 2 2 1 1 1 1 2 4 5 4 4 4 5 5 4 4 4 2 2 2 0 -1 -1 -2 -2 -2 -2 -2 -2 -3 -1 -0 -2 -2 -2 -2 -3 -4 -4 -5 -5 -5 -5 -6 -6 -7 -8 -8 -8
16 15 10 12 15 15 14 12 11 11 11 10 10 9 10 11 11 11 10 8 8 7 9 10 8 8 8 7 9 10 9 9 8 7 6 5 5 5 4 3 3 2 2 2 1 2 4 4 3 3 3 4 3 3 3 2 2 2 1 0 -1 -1 -2 -2 -2 -1 -1 -3 -3 -1 -1 -3 -3 -2 -3 -4 -4 -5 -5 -5 -6 -6 -7 -7 -8 -9 -9 -9
12 13 8 8 11 11 10 9 9 11 11 10 10 10 11 12 11 9 8 9 10 9 9 11 10 7 6 6 8 9 9 10 10 8 6 5 5 5 6 5 4 2 2 3 2 1 3 4 2 1 2 2 2 3 3 2 2 1 0 -0 -1 -1 -1 -1 -1 -1 -1 -1 -1 -1 -2 -3 -3 -3 -4 -4 -4 -5 -5 -6 -6 -7 -8 -8 -9 -9 -9 -10
14 15 12 10 11 8 7 7 10 13 12 10 11 11 9 11 12 8 6 8 12 11 9 10 10 7 6 6 7 9 8 8 9 7 5 5 5 5 5 6 5 3 3 4 2 1 3 4 2 1 2 2 3 4 3 3 2 0 -1 -1 -1 -1 -1 -1 -1 -1 -1 -1 -1 -2 -4 -4 -3 -3 -4 -4 -5 -6 -6 -7 -8 -8 -8 -9 -10 -10 -11 -11
13 13 12 14 13 9 8 9 9 14 14 12 12 11 9 11 11 9 7 6 7 10 9 9 9 6 5 6 7 8 6 5 6 6 4 5 5 5 5 4 4 4 4 4 2 2 3 2 1 1 1 3 4 4 3 2 1 -0 -1 -1 -2 -2 -1 -1 -1 -1 -1 -2 -3 -4 -6 -5 -4 -4 -5 -5 -6 -6 -7 -8 -9 -8 -9 -10 -11 -12 -12 -12
12 11 11 15 14 8 8 10 10 13 14 11 9 9 9 10 7 8 10 7 4 6 6 6 7 7 7 8 8 6 4 3 4 3 3 3 3 3 4 3 2 3 4 3 2 1 1 2 2 1 1 3 4 3 1 1 2 1 0 -1 -2 -1 -1 -1 -1 -1 -1 -2 -4 -6 -6 -5 -4 -5 -6 -7 -7 -8 -8 -9 -9 -9 -10 -11 -12 -12 -13 -13
Height
808 808 807 807 806 805 805 805 805 804 804 804 805 805 804 803 802 802 802 802 802 802 802 802 802 802 801 801 801 801 801 801 800 799 801 806 807 805 803 801 800 798 796 795 793 793 792 792 792 792 791 793 796 797 796 798 800 800 807 813 813 816 815 808 809 811 808 804 806 812 813 811 812 818 822 822 825 829 832 835 835 834 836 836 837 838 839 841
809 809 807 807 807 806 806 806 805 805 805 806 806 805 805 804 804 804 804 803 803 803 803 802 802 802 802 801 802 802 802 802 801 801 805 808 806 805 803 801 800 798 796 794 793 793 792 793 793 793 793 795 798 798 797 800 801 804 813 815 812 812 810 807 807 807 808 806 807 812 815 814 811 816 820 818 825 830 828 835 840 837 839 839 839 840 841 842
809 809 808 808 808 807 807 806 806 806 807 807 807 806 806 805 805 805 805 805 804 803 803 803 803 802 802 802 802 802 803 802 802 805 807 807 806 805 803 801 800 797 795 794 793 793 793 794 793 794 795 796 801 800 798 802 803 808 814 811 808 808 808 809 809 807 808 810 809 812 816 817 815 817 818 817 825 829 825 830 836 838 841 841 842 842 842 842
810 810 810 809 809 808 808 808 808 808 808 808 808 807 807 806 806 806 805 805 804 804 803 803 803 802 802 801 802 802 802 804 808 810 809 807 806 805 803 801 799 797 795 794 794 793 793 794 793 795 796 798 804 803 803 805 806 810 811 807 809 812 809 807 809 808 811 814 811 812 816 815 817 819 818 819 820 821 823 825 826 832 839 841 843 843 843 843
811 811 811 811 810 810 809 809 809 809 809 809 809 808 808 807 807 807 806 805 804 804 804 804 803 802 802 800 802 801 802 810 814 811 809 808 806 805 804 802 799 796 795 794 794 794 793 794 794 796 798 801 804 803 806 811 810 809 809 810 813 816 810 807 811 812 813 816 814 814 813 813 818 819 818 818 812 813 819 823 825 831 837 840 842 843 843 844
812 812 812 812 811 811 811 810 810 810 810 809 809 809 808 808 808 807 807 806 804 804 804 804 803 803 803 802 803 801 805 816 816 811 810 808 806 806 804 802 800 798 796 795 795 795 795 796 795 799 802 804 808 807 809 814 813 808 808 812 815 816 811 810 813 814 815 814 811 813 814 817 818 816 820 819 814 819 823 824 828 833 836 838 840 842 843 844
813 813 813 813 812 812 811 811 811 810 810 810 810 809 809 809 808 808 808 806 805 804 804 804 803 804 804 803 804 803 808 816 815 812 811 808 807 806 805 804 802 799 797 796 796 796 798 797 798 804 805 806 811 811 811 814 813 810 809 811 814 816 814 814 816 816 816 813 814 817 816 817 815 815 823 822 822 828 827 827 831 834 837 838 840 842 843 844
814 814 814 814 813 812 812 812 811 811 811 811 810 810 809 809 809 809 808 807 806 805 804 804 804 804 804 804 805 807 813 816 815 813 810 808 808 807 805 804 802 800 798 797 798 798 799 799 802 806 806 809 812 812 814 812 810 812 812 813 815 816 815 816 817 816 816 816 819 819 816 818 820 820 822 825 830 833 830 832 834 837 839 840 842 843 844 846
815 815 814 814 813 813 812 812 811 811 811 811 811 810 810 810 809 809 809 809 808 806 805 805 805 805 805 805 805 811 818 818 815 813 810 808 808 807 806 804 803 801 800 799 800 797 799 802 805 805 805 811 814 813 816 812 812 817 817 817 816 816 818 817 815 816 816 817 818 816 814 818 824 823 822 831 836 834 835 836 837 839 840 842 843 845 847 848
815 815 814 814 813 813 812 812 812 812 812 811 811 811 811 810 810 810 809 809 809 808 807 806 807 807 806 806 807 816 821 818 816 813 811 809 808 807 805 805 804 803 801 801 800 800 801 803 805 805 805 812 815 816 819 816 817 821 820 819 817 818 820 818 815 816 817 816 817 815 812 816 823 820 819 834 839 835 837 838 840 840 841 844 845 848 849 849
816 815 815 814 813 813 812 812 813 812 812 812 812 812 811 811 810 810 810 810 810 809 809 809 809 808 808 808 812 821 821 817 816 813 811 809 808 807 806 806 805 803 803 802 803 803 803 803 805 805 806 812 815 816 819 819 820 821 819 816 816 816 817 819 816 815 817 814 818 817 813 817 820 817 821 835 839 836 838 840 843 842 843 847 848 849 850 850
816 816 816 815 814 814 813 813 813 813 813 812 812 812 811 811 811 811 810 810 810 810 810 810 809 809 809 809 815 823 820 817 816 813 811 809 808 808 807 806 805 805 804 804 805 804 804 804 804 805 810 814 814 816 816 820 821 819 819 813 812 813 812 819 818 816 817 814 818 817 813 813 813 820 831 836 838 838 840 842 844 845 847 849 850 851 851 852
817 816 816 816 815 814 814 814 813 813 813 813 813 812 812 812 811 811 811 811 811 811 811 811 811 810 810 813 819 821 819 818 815 812 811 810 810 809 808 808 806 806 805 805 806 806 805 805 804 807 813 813 814 817 816 821 820 817 823 820 817 816 811 818 822 818 815 816 818 815 815 813 813 828 836 836 837 838 841 844 845 847 850 851 851 852 852 853
817 817 817 816 816 815 814 814 814 814 813 813 813 812 813 812 812 812 811 812 812 812 812 811 812 811 811 817 820 819 819 818 814 812 812 811 810 809 809 809 808 808 807 807 808 808 808 806 805 808 815 817 818 819 817 821 821 818 824 826 830 827 813 815 824 820 814 818 818 814 818 813 814 831 837 837 838 836 841 845 846 849 851 852 852 852 852 853
818 818 817 817 816 815 815 815 815 814 813 813 813 813 813 812 812 812 812 813 812 813 813 812 812 811 814 819 819 820 819 815 815 816 815 813 811 810 811 810 809 809 808 809 809 809 809 807 808 813 819 821 820 819 818 820 825 828 825 823 835 836 822 819 825 824 819 821 820 815 819 813 816 835 837 837 838 837 841 845 847 850 850 851 851 852 852 852
819 818 818 817 817 816 816 816 815 815 814 814 813 813 813 813 813 813 813 814 813 813 812 812 813 811 817 823 820 820 819 818 819 819 818 815 814 813 812 811 811 810 809 810 809 810 809 809 817 825 824 823 826 825 820 819 826 836 835 828 831 834 831 826 822 828 828 823 820 820 821 814 821 837 838 836 838 838 841 845 849 850 850 851 851 851 852 852
819 819 818 817 817 817 817 817 816 816 815 814 814 814 814 814 814 814 814 814 814 814 813 815 814 812 819 824 823 823 823 823 822 820 818 816 816 815 813 812 812 810 810 809 809 810 811 816 825 829 829 833 837 830 821 827 832 836 840 837 835 836 837 830 822 827 829 823 822 824 824 820 828 840 838 837 838 839 842 846 850 850 850 851 851 852 852 852
819 819 818 818 818 818 818 818 817 816 816 816 815 815 815 816 815 815 815 814 814 813 813 815 814 818 826 827 829 830 827 826 824 821 819 817 817 816 815 814 813 811 811 811 813 816 818 822 826 825 831 839 842 837 830 837 841 838 842 842 842 843 842 838 828 825 827 826 827 825 823 828 839 843 840 840 840 841 845 848 849 850 851 851 851 852 852 852
820 819 819 818 818 818 818 818 818 817 817 817 816 816 816 817 816 816 817 816 817 821 826 828 826 831 836 833 833 832 828 828 825 822 820 818 818 817 817 817 817 815 816 818 819 826 827 826 829 831 838 845 849 850 843 844 847 844 848 850 848 845 841 838 831 827 831 829 824 823 827 838 847 846 844 845 844 844 847 849 850 850 850 851 851 852 852 853
820 820 820 819 819 819 819 819 819 818 818 818 818 817 818 820 821 825 827 825 829 835 837 838 836 837 838 836 835 831 829 828 826 826 823 820 819 818 819 819 820 821 827 831 828 834 836 832 840 846 849 851 853 856 853 854 856 852 851 851 850 847 840 833 829 829 832 828 821 823 834 848 851 849 849 848 846 848 849 850 850 851 851 852 852 853 854 854
821 821 821 820 820 820 820 819 819 819 819 819 818 819 821 823 826 832 834 834 838 839 838 839 839 838 838 838 837 834 832 829 828 829 826 823 820 819 825 826 824 827 839 845 839 837 836 836 847 852 854 858 857 860 859 855 855 852 850 849 849 847 836 827 827 829 831 829 824 824 837 851 854 852 851 850 849 850 851 851 851 851 852 852 853 854 855 856
822 822 821 821 820 820 820 820 819 819 819 819 819 821 823 823 824 827 830 835 840 839 838 839 838 838 839 838 838 836 835 833 829 828 827 826 823 824 832 834 833 837 844 844 838 836 837 841 848 854 860 863 860 860 856 851 851 849 850 850 845 840 832 823 822 827 832 831 826 827 839 851 855 855 853 852 852 852 852 853 852 852 853 853 855 856 857 857
823 823 822 821 821 820 821 820 820 820 820 820 821 822 824 824 825 825 826 833 839 839 840 839 839 840 839 838 839 837 837 840 840 836 833 831 831 834 837 838 839 841 843 842 836 836 839 843 851 859 861 855 851 852 850 849 850 848 850 850 841 837 838 830 821 825 831 831 830 832 842 854 857 854 854 854 853 854 854 853 854 854 854 855 856 858 858 858
823 823 822 822 822 821 822 821 821 822 821 822 822 823 825 825 826 826 829 836 840 839 840 840 841 841 841 841 841 839 840 846 848 844 841 838 837 839 840 843 842 839 846 850 844 840 840 847 857 859 853 848 843 844 848 849 850 850 849 845 837 834 840 838 832 829 828 831 835 834 837 848 855 855 855 856 855 856 856 855 856 856 856 857 857 858 858 858
824 823 823 823 822 822 822 822 823 823 823 824 823 825 826 825 827 826 829 839 841 839 840 840 841 842 843 843 841 842 843 846 849 847 844 843 841 840 842 847 844 839 846 852 848 841 842 852 859 850 844 846 843 842 849 852 853 852 842 836 835 836 841 842 838 835 831 831 832 833 835 839 849 856 854 855 857 856 857 857 858 858 858 859 858 859 858 858
824 823 823 823 823 823 822 823 825 824 825 825 825 826 826 826 828 826 830 841 845 844 843 840 842 844 843 844 844 844 844 845 848 848 845 844 844 841 842 848 847 844 848 851 848 844 846 854 855 848 845 845 842 844 850 853 857 851 839 839 843 843 845 839 836 840 840 834 828 832 840 840 846 853 851 853 857 856 858 859 859 860 860 860 860 859 858 858
823 823 823 822 823 823 822 823 824 824 825 825 826 826 826 827 828 826 833 846 850 850 848 844 845 846 846 849 847 844 847 849 846 847 847 846 845 843 842 848 849 848 854 853 843 843 848 848 849 850 848 844 845 847 849 854 857 845 838 846 847 843 842 837 837 844 844 839 831 830 837 837 834 839 844 850 855 856 857 860 861 861 861 860 860 859 858 857
823 823 822 822 822 822 822 823 823 824 824 825 826 826 827 828 828 829 836 851 857 852 852 850 847 848 850 852 850 848 855 855 848 847 849 848 847 845 844 850 852 850 856 852 839 844 851 847 848 851 848 846 847 848 851 856 854 842 840 848 847 843 842 838 839 843 846 845 834 826 834 835 826 831 846 852 853 853 855 860 862 861 861 860 860 859 857 856
823 822 822 822 822 822 822 822 822 824 824 826 826 826 828 827 828 833 840 854 859 853 855 853 848 852 856 854 854 857 858 858 857 854 852 852 850 849 851 856 858 855 858 855 844 847 854 853 856 854 850 850 848 848 852 854 850 844 845 845 841 840 840 841 844 842 844 847 836 829 836 839 831 833 847 853 851 850 854 860 862 860 860 860 860 859 856 855
823 822 822 821 821 821 822 822 824 825 825 826 826 827 828 828 832 840 848 858 859 858 859 856 856 864 864 855 854 861 861 861 867 862 857 859 855 854 858 860 860 856 855 855 848 850 857 859 860 857 854 854 852 851 850 852 853 847 846 844 836 834 835 842 847 842 839 839 837 835 839 847 843 827 833 850 852 851 856 862 861 860 860 860 859 859 856 854
824 823 822 821 821 822 822 823 825 825 826 827 827 828 828 833 841 848 857 863 861 862 862 861 868 871 870 867 863 865 865 864 869 865 862 865 866 865 862 862 865 855 849 854 852 851 854 854 855 857 858 857 855 852 849 853 858 852 850 849 840 834 835 839 842 844 847 843 837 838 840 849 846 826 832 856 858 855 860 862 862 860 860 860 859 857 855 853
825 824 823 822 822 821 822 824 826 826 827 827 828 829 830 839 850 858 865 863 860 867 869 870 875 873 874 876 872 873 872 868 871 874 875 876 880 884 880 881 882 861 850 862 864 855 849 849 855 857 858 859 854 850 848 849 853 853 853 854 854 853 852 852 850 849 853 845 834 837 844 847 838 826 841 861 859 857 860 860 861 860 859 858 857 856 853 851
826 825 824 823 823 823 824 825 826 827 828 828 829 831 834 842 857 873 875 864 866 876 878 878 879 879 878 872 870 879 878 873 873 877 882 880 880 886 888 893 893 874 865 873 875 867 852 848 855 852 853 859 855 854 857 853 853 857 858 860 866 871 873 874 866 856 851 840 829 834 846 847 832 829 848 860 857 857 859 859 859 858 857 857 855 854 851 848
828 827 825 825 825 825 826 826 827 828 828 828 830 833 838 849 867 880 875 870 878 882 882 884 880 877 876 871 876 884 876 874 879 877 878 878 878 883 887 891 894 890 885 880 884 885 867 853 852 851 854 858 856 860 866 861 859 863 863 863 867 871 879 880 872 865 859 847 839 841 846 841 831 837 853 856 855 857 857 857 858 856 856 855 853 851 849 846
829 828 827 827 827 827 828 828 828 828 828 829 833 838 845 859 874 877 872 877 884 881 882 887 880 869 870 875 884 888 878 874 880 881 880 884 888 891 894 896 898 900 892 882 888 892 878 862 855 856 861 860 857 862 865 861 859 863 863 864 869 868 868 871 869 865 861 856 851 846 841 835 835 849 857 855 856 856 855 855 854 854 854 852 851 849 846 843
830 829 828 828 829 829 828 829 829 829 830 829 834 848 861 870 876 877 880 884 885 884 881 879 877 869 868 874 878 883 884 881 880 880 882 890 895 896 899 901 903 905 897 891 893 893 883 866 856 859 861 859 861 863 865 864 857 858 863 863 866 867 866 871 871 863 861 864 855 843 838 835 837 850 858 858 856 852 851 853 852 853 853 850 849 846 843 841
830 830 830 830 830 830 830 830 829 829 831 830 838 860 878 882 883 886 890 890 891 893 882 870 876 879 877 877 875 878 882 881 881 879 879 888 892 894 900 902 904 907 905 901 898 898 896 876 862 866 860 857 867 865 864 870 863 862 869 865 865 867 867 875 881 877 876 869 848 836 842 842 838 847 857 859 855 850 850 851 851 853 851 849 848 845 843 841
830 830 831 832 831 831 831 829 831 830 831 840 857 876 885 886 890 894 895 895 894 892 880 873 881 885 885 882 879 885 886 877 880 884 884 887 888 893 901 901 903 907 909 907 898 899 905 884 866 873 869 861 867 865 861 867 867 866 867 867 870 873 873 882 893 892 886 874 852 840 844 845 840 843 852 856 853 849 848 849 852 852 850 849 846 843 842 839
829 830 832 835 833 832 831 830 833 831 830 846 868 880 884 887 893 897 897 897 894 887 880 883 888 887 889 889 885 892 894 886 887 889 886 887 888 894 903 903 902 905 909 909 902 901 905 892 873 873 875 868 863 862 863 865 868 869 868 869 874 876 883 895 899 892 887 882 868 850 844 845 842 841 849 853 849 846 848 851 853 851 849 847 844 842 840 836
829 830 834 837 833 833 833 830 833 836 842 862 877 881 886 890 893 899 900 898 894 888 884 888 892 886 887 892 893 896 897 895 895 892 890 894 892 892 904 909 905 905 909 908 906 904 903 899 884 871 873 873 864 863 867 868 871 872 873 876 878 880 886 891 890 888 891 889 879 869 858 848 844 846 850 850 846 847 852 853 852 850 848 847 844 841 837 834
829 831 835 836 834 835 833 833 848 862 867 877 884 884 889 889 890 897 902 900 896 893 891 891 892 889 888 891 895 899 898 896 896 894 894 897 893 890 903 912 908 908 908 903 903 906 903 902 897 886 881 874 865 864 868 870 873 873 877 880 883 889 891 894 894 887 888 889 885 886 877 853 844 849 849 846 847 852 854 854 852 850 847 845 843 840 836 834
830 835 838 836 834 834 833 846 872 881 876 879 884 886 889 889 890 894 897 899 896 893 893 893 893 894 894 892 895 899 898 894 894 894 895 898 896 895 904 912 913 912 907 901 904 909 908 909 907 899 887 872 866 873 877 875 873 873 879 883 887 895 899 905 905 892 891 893 885 885 879 856 845 849 848 847 851 854 855 855 853 850 847 844 840 838 836 833
834 838 839 837 835 834 836 853 876 882 881 887 891 891 892 891 890 892 894 894 893 891 889 891 893 893 894 896 897 897 895 893 893 893 896 900 901 902 908 913 913 911 907 902 904 908 908 909 903 889 876 867 865 873 877 875 873 874 880 887 895 901 901 904 906 901 902 900 891 890 882 856 843 846 848 850 854 856 857 857 854 850 846 842 839 837 834 831
839 840 840 837 834 832 837 850 867 878 886 889 888 889 892 893 892 891 891 891 892 891 887 888 894 893 894 899 897 895 894 889 890 895 899 901 902 905 912 916 913 908 906 905 906 907 902 901 900 893 885 877 869 872 874 872 874 878 883 892 899 902 904 905 905 908 906 897 894 898 883 854 842 846 850 853 856 858 858 857 856 851 845 841 839 837 834 832
839 840 842 840 836 837 847 859 864 873 883 882 882 888 889 890 895 894 892 894 897 896 889 890 896 896 898 901 896 897 898 890 889 897 902 902 903 906 911 914 913 910 910 913 914 909 904 905 907 903 905 904 894 889 882 875 879 882 884 896 904 905 910 907 903 909 908 896 894 896 880 855 845 849 852 855 859 860 858 856 854 850 846 843 840 837 835 834
837 840 843 843 843 848 861 873 869 868 877 876 878 889 889 886 894 898 895 894 897 899 894 893 898 897 896 897 893 894 898 898 897 897 899 900 899 905 913 913 913 913 913 916 916 911 910 913 908 902 905 907 900 892 884 883 891 891 889 899 906 908 912 909 907 911 908 897 890 885 875 861 853 855 857 858 861 860 857 854 851 848 846 843 841 839 837 836
838 845 852 849 849 855 863 872 872 869 875 875 876 888 890 886 891 894 894 894 896 898 896 896 899 895 892 895 893 892 896 901 902 899 901 906 904 907 914 913 913 914 914 916 916 913 910 907 905 906 904 898 895 893 890 893 899 896 895 902 906 907 910 910 910 907 902 902 891 874 871 870 863 861 861 862 863 861 858 856 852 849 848 844 842 841 839 837
843 853 863 857 854 861 863 869 875 875 877 880 885 891 890 887 889 889 890 895 897 897 893 891 896 899 899 900 895 892 895 896 896 899 904 909 908 906 907 910 912 913 913 914 915 915 912 907 910 912 905 900 901 898 895 898 898 896 898 903 905 909 909 907 907 902 899 904 893 873 871 875 869 864 865 865 865 863 860 857 854 852 850 846 844 842 840 838
850 855 866 864 863 873 877 878 881 877 876 882 886 889 887 884 887 894 898 895 891 895 893 886 892 901 905 905 898 894 895 891 890 899 905 907 910 907 903 904 909 913 913 911 915 920 913 906 913 917 908 903 900 895 894 896 895 897 902 905 906 909 907 904 901 897 895 895 887 878 878 878 873 870 869 866 866 866 862 858 855 853 850 847 845 843 841 840
845 846 857 862 868 880 884 883 879 871 876 882 880 886 891 886 886 896 903 897 886 889 894 890 894 903 905 905 900 896 899 898 895 901 908 908 909 910 906 905 908 912 911 909 915 920 912 906 915 920 912 900 892 889 890 890 894 902 906 906 906 905 903 902 898 893 891 887 882 883 886 883 877 874 871 867 866 865 862 859 857 853 850 848 847 846 844 842
840 842 847 850 864 881 881 882 882 870 871 879 879 886 891 887 888 894 899 904 899 892 895 896 897 903 906 904 901 898 904 908 904 905 910 909 907 908 908 909 911 911 909 911 915 916 913 913 917 919 913 898 885 885 888 889 895 902 905 907 908 906 903 900 896 893 891 885 883 890 895 887 878 874 871 867 866 865 864 862 858 854 852 851 850 850 848 844
841 844 845 844 862 883 882 880 881 872 872 883 887 890 891 890 896 896 890 901 908 903 903 904 901 901 900 898 899 903 907 910 909 910 912 911 911 912 911 912 915 912 910 913 918 921 921 918 916 920 913 891 882 890 894 889 885 889 900 908 907 905 902 897 892 890 887 887 893 899 895 883 877 877 875 868 866 868 867 865 859 856 855 855 855 854 850 846
Wind_Speed
9 9 9 10 11 11 11 10 9 7 8 8 9 10 12 14 15 15 14 12 8 5 5 4 4 3 3 3 7 9 10 18 26 30 23 17 23 22 17 15 15 18 15 12 11 5 2 3 5 7 4 2 4 2 2 3 3 4 3 2 2 3 3 5 6 6 3 2 3 3 2 5 3 1 3 2 8 5 5 6 4 6 8 9 10 13 14 14
8 8 9 10 10 10 10 10 8 7 8 8 8 10 12 14 14 14 13 13 10 6 4 2 2 1 2 3 7 8 6 12 23 25 21 23 24 18 14 14 16 19 16 10 9 5 2 2 4 6 5 2 2 3 2 3 3 4 3 1 3 5 5 5 6 5 2 1 2 2 0 3 4 4 4 1 1 2 6 4 4 7 8 10 12 15 17 19
8 8 8 8 8 9 9 8 8 7 8 7 8 10 12 13 13 13 12 11 10 9 6 2 3 3 5 6 6 6 3 8 16 15 22 26 21 15 14 15 16 18 16 8 5 3 2 1 1 4 4 2 1 3 3 3 2 2 3 1 5 5 4 3 4 5 3 1 2 1 0 1 3 3 3 3 3 1 3 3 3 5 5 6 8 13 17 20
7 7 6 7 7 8 7 7 7 7 7 7 8 10 11 12 12 13 13 13 11 9 9 7 6 4 4 5 4 2 2 7 7 11 23 25 19 16 14 17 18 17 13 5 3 3 4 4 5 5 4 2 3 3 3 3 2 1 2 3 5 2 2 4 5 5 1 2 2 2 1 1 3 3 3 6 4 3 5 7 6 9 10 8 6 11 16 18
6 6 5 6 6 6 6 5 6 6 6 7 8 10 10 11 12 13 16 18 14 9 11 14 14 13 11 5 1 3 2 6 5 15 25 24 18 16 15 19 20 17 10 3 4 5 5 5 7 6 4 2 5 4 2 3 2 0 1 3 4 2 1 5 3 3 1 4 4 3 1 2 2 1 4 8 5 4 5 6 7 11 12 10 9 11 14 16
5 5 5 6 6 6 6 5 5 5 5 6 8 9 9 10 11 12 15 19 16 9 10 13 12 13 15 14 9 5 6 3 8 18 26 23 17 14 14 18 20 16 9 6 6 5 5 6 7 5 3 3 3 3 1 4 3 1 3 2 2 3 2 4 3 2 3 5 3 3 3 2 3 2 2 6 5 4 3 4 11 12 14 15 14 13 11 11
4 5 6 6 6 6 6 5 4 4 4 6 7 8 9 9 9 9 12 16 17 10 8 8 4 3 7 9 12 13 9 1 11 20 26 21 14 12 12 15 19 18 14 13 10 4 5 8 6 3 4 3 0 1 2 4 4 3 2 4 1 2 3 4 3 2 3 2 2 3 1 3 1 2 1 2 2 4 3 10 16 15 17 18 14 10 10 12
5 5 6 6 6 6 6 5 4 4 5 6 7 8 8 8 8 8 10 14 18 14 6 5 3 1 4 2 5 10 6 6 17 23 25 18 11 11 11 13 18 19 19 17 11 3 3 6 3 3 3 2 2 0 3 4 4 4 1 4 3 1 4 6 4 3 2 2 1 2 1 1 3 2 2 1 3 6 8 14 15 14 14 13 10 9 10 12
5 6 6 6 6 6 6 5 5 5 5 6 7 8 7 7 8 7 9 11 15 18 12 5 1 1 2 2 5 6 5 12 19 23 23 15 9 10 11 14 16 18 17 16 14 8 3 2 1 3 3 1 2 1 4 3 2 2 2 3 4 4 6 6 6 7 5 2 2 1 3 5 2 1 2 4 5 6 10 12 10 12 11 9 8 8 10 12
6 6 6 6 6 6 6 5 5 5 6 7 7 7 6 6 6 6 7 8 11 14 16 16 12 10 9 6 7 6 9 15 19 20 18 12 8 9 13 14 14 15 14 14 17 12 3 2 2 3 5 3 3 2 3 2 0 2 3 1 2 4 5 4 5 6 5 1 2 1 5 5 2 1 1 3 4 7 12 10 8 10 9 7 7 8 13 14
6 6 6 7 8 7 7 6 6 6 6 7 6 6 5 4 4 4 5 6 8 8 9 12 12 16 21 14 8 6 11 16 18 19 17 11 9 11 14 12 12 13 12 13 15 10 3 3 3 4 2 2 1 3 2 0 1 2 2 1 2 6 4 5 5 6 4 2 1 3 4 5 2 2 1 3 5 7 12 10 8 9 8 8 9 9 12 13
6 6 7 8 9 8 8 8 7 7 7 6 6 6 6 5 4 4 3 5 7 7 7 8 8 8 13 13 8 6 13 17 19 18 18 14 10 11 13 10 10 13 12 12 12 11 7 3 5 6 0 1 1 2 1 1 1 0 4 1 6 9 6 6 5 5 3 1 2 2 2 5 2 4 2 6 7 7 11 9 8 8 7 8 8 8 9 11
6 6 7 9 9 9 10 10 9 8 6 6 6 7 7 5 3 3 2 3 4 6 7 8 10 8 7 6 5 12 16 19 20 16 17 17 10 8 11 10 9 12 13 13 12 12 10 5 9 8 2 4 1 1 2 4 3 1 5 3 3 9 5 3 3 6 5 2 5 4 3 4 2 4 3 6 8 10 11 8 7 7 7 7 7 7 7 10
7 7 8 9 9 10 12 12 11 8 6 6 7 8 7 6 5 4 4 4 4 5 5 6 6 7 8 3 2 16 19 19 23 19 20 21 13 8 9 11 10 12 14 13 11 11 9 7 13 9 2 4 0 2 4 6 5 2 4 3 3 5 5 5 5 6 6 2 7 7 3 6 3 6 4 5 8 11 11 8 8 7 7 7 6 7 6 8
7 6 7 8 8 10 11 12 11 8 6 6 6 7 6 6 6 5 5 6 7 6 4 6 5 4 6 2 2 16 22 22 26 25 22 20 18 12 8 8 9 11 14 14 10 10 11 8 11 6 3 4 4 4 4 4 5 4 4 4 3 2 5 8 5 2 2 3 7 7 3 6 3 5 4 5 7 10 12 8 8 8 8 7 6 7 5 6
5 5 6 7 7 9 10 10 9 9 7 5 5 5 4 5 6 8 9 9 12 10 6 6 7 5 6 2 7 15 19 20 23 25 21 16 17 16 10 4 3 4 7 13 12 9 13 12 6 3 2 5 6 4 4 4 5 4 4 4 5 4 5 7 3 1 2 3 6 5 2 6 3 5 6 4 8 9 11 9 8 8 7 6 5 5 5 4
4 5 7 7 7 7 8 8 10 14 16 15 14 10 9 7 3 4 5 4 7 8 10 10 8 6 6 5 7 9 12 15 20 25 24 17 13 16 15 6 4 7 2 9 17 12 11 9 2 1 4 5 3 3 5 5 5 4 3 2 4 4 4 6 5 3 5 3 4 2 3 6 5 8 8 2 9 10 11 9 8 8 6 6 5 5 5 5
5 7 9 8 7 6 7 10 14 18 20 23 24 23 23 20 15 14 9 3 3 4 7 13 10 5 4 8 6 9 14 15 19 26 27 19 11 14 18 9 6 9 4 5 13 11 7 5 3 2 5 5 5 6 5 2 4 4 5 4 5 4 4 6 6 3 6 4 4 4 4 5 7 9 8 4 8 9 9 8 7 7 6 5 5 5 5 5
7 8 10 9 8 7 9 12 14 13 12 14 15 14 15 17 20 26 27 18 8 4 3 7 7 4 2 6 8 14 13 10 19 28 31 24 12 10 15 12 6 7 7 4 7 7 4 4 5 4 5 5 4 2 2 2 3 5 6 4 6 8 5 7 7 4 3 4 5 4 3 4 7 7 7 5 6 9 8 7 6 5 5 4 4 4 4 5
8 8 9 10 9 8 10 11 10 7 5 3 2 4 4 4 8 12 17 16 8 5 4 1 2 2 2 4 10 17 10 5 16 26 33 27 12 8 12 11 7 7 6 2 4 4 4 5 5 2 4 6 5 4 3 2 2 4 5 4 6 9 8 6 6 4 1 2 6 4 1 4 6 6 6 4 6 8 7 6 5 4 4 4 5 5 5 5
10 8 8 10 9 8 8 8 6 4 3 4 3 4 1 2 5 1 2 6 4 5 6 1 0 1 2 2 10 15 5 2 10 20 33 27 10 6 8 7 7 7 5 2 3 4 5 6 3 4 6 6 4 2 2 1 2 2 4 6 7 6 8 8 5 3 2 4 6 2 4 5 5 5 4 4 5 6 5 5 5 4 4 3 4 5 4 4
10 8 7 9 9 9 6 5 2 3 5 3 2 6 3 5 9 8 4 4 3 5 5 2 4 4 3 2 11 12 3 5 10 19 33 27 11 6 4 6 7 3 6 3 2 5 6 4 4 6 2 2 1 3 3 3 3 2 3 5 6 5 6 8 4 2 1 3 6 2 5 3 4 4 3 3 3 4 3 4 4 4 4 4 4 5 4 4
8 8 7 7 8 9 8 9 8 5 5 7 10 10 9 10 11 8 5 6 2 3 3 4 5 5 5 5 13 12 6 7 6 14 28 21 7 4 3 5 5 2 5 6 4 4 3 1 4 2 2 4 0 3 4 4 4 3 4 4 6 5 4 5 5 3 3 4 3 2 4 2 2 3 3 3 2 3 3 4 4 3 4 5 4 5 4 3
6 6 6 6 6 7 8 9 7 8 11 14 15 13 11 9 8 5 5 4 1 1 1 1 2 3 4 4 13 9 5 4 1 8 20 13 4 2 4 2 3 4 4 2 5 5 1 4 2 3 3 3 1 5 6 5 6 5 5 4 7 7 4 6 9 10 7 3 0 2 2 1 3 2 1 1 1 2 2 3 4 4 4 4 4 4 3 2
6 5 5 5 4 4 5 6 7 9 11 11 13 12 10 7 3 2 4 3 3 2 2 1 1 5 4 6 13 5 3 3 2 5 13 11 4 2 3 0 3 6 5 1 4 3 1 3 2 2 5 6 4 5 4 3 5 6 5 6 7 8 8 10 11 10 7 4 0 2 4 3 3 5 5 3 2 2 1 3 4 3 3 3 2 1 2 2
6 5 4 3 3 2 2 3 5 7 6 6 10 9 6 5 2 1 3 4 4 3 4 3 2 7 7 8 12 2 3 4 1 4 12 12 4 2 3 3 2 4 4 1 1 0 1 2 2 2 3 5 6 4 2 2 6 7 4 3 4 7 10 13 12 7 4 5 4 1 1 4 3 5 7 6 4 4 3 2 3 2 2 1 1 2 2 3
6 5 4 3 1 1 0 2 6 6 2 4 9 7 3 2 2 1 3 5 4 2 4 4 3 8 7 8 10 3 3 7 4 5 12 14 8 1 4 5 2 3 1 1 3 1 2 6 6 5 4 5 5 5 3 2 4 7 3 2 6 10 12 14 11 5 2 4 5 0 2 4 3 4 6 7 5 6 5 2 2 1 1 2 2 3 3 4
7 5 4 3 1 1 1 5 7 5 2 5 8 5 3 3 1 1 4 4 3 1 1 3 3 6 6 8 11 6 1 6 2 5 14 16 12 3 4 4 1 2 2 4 4 4 1 3 4 4 5 4 2 4 4 1 1 7 6 6 8 9 10 10 8 5 2 2 4 4 2 3 5 2 2 5 5 8 5 3 1 2 3 3 3 4 5 5
9 7 4 2 0 2 4 7 6 5 6 7 7 4 4 3 1 3 5 3 2 1 1 2 3 5 7 7 8 5 2 4 3 7 13 13 13 7 3 2 1 1 3 3 1 4 1 1 2 2 3 1 4 6 4 2 3 8 8 8 8 7 6 4 3 4 2 3 3 6 3 2 5 2 2 3 5 7 3 3 2 3 4 4 3 5 5 5
11 8 5 1 3 5 7 7 7 8 8 7 7 6 5 3 4 5 4 0 1 2 1 3 3 4 8 7 6 5 5 4 2 6 7 5 11 11 3 0 4 4 2 4 1 5 4 1 2 2 0 2 4 6 4 4 4 7 7 7 9 6 1 2 1 2 4 2 4 5 2 3 5 3 3 2 2 2 5 2 2 3 4 4 4 5 6 5
13 11 7 3 4 6 5 6 8 9 8 7 8 6 3 3 5 7 2 2 1 3 3 4 3 4 7 6 4 6 5 5 5 6 6 4 9 11 5 3 4 4 4 6 5 7 6 3 1 1 1 1 1 4 3 2 1 5 4 5 9 7 4 4 3 4 4 5 5 2 2 2 4 4 2 3 3 6 7 3 3 4 6 4 4 5 6 6
14 12 9 6 6 6 6 7 9 9 8 9 6 4 4 3 4 3 1 4 2 3 2 2 3 4 5 3 4 6 4 5 5 5 4 3 5 6 6 5 4 4 6 5 5 7 5 0 3 4 1 2 3 4 5 3 4 6 4 6 8 6 5 5 6 5 1 6 5 3 4 2 6 4 3 6 4 5 5 2 3 5 7 5 5 6 6 6
16 12 9 10 9 10 11 10 9 9 8 7 4 5 7 5 2 1 3 3 2 2 1 1 3 3 3 4 5 5 3 3 5 5 2 2 4 4 5 6 6 4 3 4 5 6 5 3 5 4 2 2 4 5 7 5 5 7 3 3 4 3 6 7 6 7 6 8 8 5 3 3 6 4 4 7 5 4 4 1 2 5 6 5 5 7 8 8
16 15 12 11 10 11 11 9 8 8 6 4 4 5 7 4 1 1 2 3 1 3 1 0 4 4 3 3 3 4 3 2 4 5 4 4 5 4 4 7 8 4 0 2 3 3 4 5 4 3 2 3 3 3 3 4 4 3 2 2 1 2 5 7 5 7 9 10 10 6 1 4 6 2 5 7 5 4 3 1 2 4 4 5 6 7 9 11
10 16 17 15 12 8 7 6 6 7 4 5 7 6 6 2 3 1 2 4 2 3 2 1 3 4 3 3 3 2 2 2 3 5 4 4 3 3 3 4 5 3 2 2 2 0 1 5 6 3 2 0 2 2 1 1 3 2 2 2 2 1 3 4 5 7 10 10 7 4 1 4 2 1 3 4 3 1 2 3 4 5 5 6 8 9 11 12
3 11 18 19 15 9 4 5 5 4 3 6 8 5 2 4 2 2 2 2 1 1 3 3 4 5 4 5 4 4 2 1 2 3 3 2 1 2 2 2 2 3 3 1 1 1 1 6 7 6 3 2 1 4 2 2 3 2 2 4 5 2 4 2 6 6 8 9 5 2 4 4 2 1 1 0 3 5 5 6 7 7 9 10 10 11 12 13
1 3 12 19 18 10 4 3 4 4 4 7 7 3 2 2 1 2 2 0 1 1 3 2 2 3 3 3 4 6 5 2 3 4 2 1 1 1 2 2 1 2 1 1 1 1 1 6 7 4 4 3 1 2 2 1 2 3 2 5 5 1 3 2 4 5 6 8 5 3 8 9 6 3 1 1 6 9 9 9 10 11 12 12 12 12 13 14
2 3 7 18 19 9 4 4 4 4 6 8 5 3 1 0 1 1 2 1 1 2 5 2 1 2 1 1 3 6 5 4 4 4 2 2 2 1 2 2 0 1 1 0 0 0 1 4 6 1 2 7 3 4 3 3 3 3 2 2 2 5 5 3 2 4 6 8 8 9 11 8 4 4 2 2 7 12 12 11 11 13 13 12 13 14 15 15
2 3 4 16 17 8 5 3 4 6 8 6 3 2 1 1 0 1 1 1 1 3 4 1 0 2 1 1 2 4 4 3 3 3 2 2 3 1 3 1 1 1 2 1 2 1 0 1 5 2 2 6 5 4 3 5 4 3 3 3 3 2 3 0 1 1 3 6 9 12 12 6 2 4 3 5 11 15 16 12 9 13 16 15 14 14 15 13
2 2 2 15 14 6 6 6 7 8 7 4 3 2 1 1 0 1 2 2 0 2 2 2 1 2 1 0 0 1 2 1 1 2 1 1 2 1 2 1 1 2 2 2 2 1 1 1 4 5 4 3 3 2 2 4 4 5 5 5 5 2 2 2 2 1 2 4 7 10 10 7 4 2 2 8 15 16 16 13 12 16 19 16 15 16 15 12
3 3 3 16 12 0 4 10 9 6 4 3 2 2 1 1 1 2 3 2 1 1 1 4 3 1 1 1 1 1 1 1 1 1 0 1 1 2 1 2 1 2 2 3 3 0 1 1 4 6 5 3 3 3 2 1 1 2 4 4 3 2 3 6 6 1 2 2 6 7 9 8 5 1 3 12 16 14 13 15 16 19 19 17 16 16 14 14
6 3 5 15 8 4 7 8 4 3 4 3 2 2 1 2 2 1 1 2 1 0 2 3 2 1 2 0 1 2 0 1 0 1 1 1 1 2 2 2 2 1 1 2 3 2 1 1 2 5 5 6 7 3 3 2 3 2 1 1 1 1 3 2 5 5 3 4 6 6 8 8 2 1 9 15 13 11 13 17 19 17 17 17 16 15 15 16
4 3 5 13 2 5 10 6 2 5 4 0 0 1 2 2 2 1 1 2 1 0 2 2 1 1 1 1 1 1 0 1 2 0 1 2 2 2 1 1 1 1 2 1 3 1 1 2 2 5 5 6 5 2 3 2 3 3 2 3 3 2 1 3 5 4 4 4 5 6 8 8 3 5 13 15 11 11 14 17 18 16 16 16 15 17 18 16
3 3 4 13 3 5 5 4 2 3 1 0 3 2 2 1 2 1 1 2 1 1 2 1 0 1 0 1 2 1 1 0 1 1 0 1 2 1 2 1 1 1 3 1 2 2 2 1 4 7 7 7 6 5 3 3 4 4 2 2 4 4 4 2 1 2 2 4 7 8 8 9 9 12 16 13 11 14 15 14 15 16 15 14 15 17 17 15
3 1 3 13 14 8 4 4 6 5 3 3 5 2 3 2 2 1 2 1 1 1 1 0 0 1 1 1 2 1 1 2 1 1 2 1 3 1 2 1 1 1 2 1 2 1 2 1 1 2 5 8 8 8 9 8 7 5 2 5 6 5 5 5 4 3 3 7 9 8 9 13 16 18 18 13 13 16 17 15 15 14 13 15 16 15 15 15
3 2 2 7 12 10 4 1 4 6 4 4 4 2 2 2 1 1 2 1 0 1 1 1 0 1 2 3 3 2 2 2 2 1 1 2 3 2 1 0 2 1 3 2 4 3 2 0 2 4 5 6 8 10 12 10 9 9 9 7 5 3 3 5 4 3 6 10 10 9 14 20 22 21 17 14 16 19 17 17 17 14 15 19 17 14 16 15
2 2 1 2 4 5 5 4 5 4 3 4 3 0 1 2 1 1 1 0 0 1 1 2 2 2 2 3 2 1 3 3 3 1 0 2 4 3 2 0 2 1 3 2 3 3 4 2 4 5 7 10 10 13 14 11 9 10 9 6 4 5 5 5 5 6 7 8 10 15 21 22 21 19 16 16 18 18 17 18 17 15 17 19 16 15 18 14
3 3 2 1 2 2 3 3 3 5 4 4 3 2 1 2 1 1 0 1 1 1 0 1 4 3 0 0 2 0 3 4 3 2 1 1 3 4 4 1 1 1 1 2 3 4 5 3 4 2 6 10 10 13 13 9 6 5 4 3 4 6 7 6 7 9 8 7 12 21 24 21 18 16 16 18 18 16 17 17 15 16 18 18 15 16 18 16
3 4 0 2 3 3 1 2 4 6 6 4 3 2 2 3 2 1 1 1 2 2 1 1 4 4 1 1 3 2 2 2 2 3 1 1 2 2 3 1 1 2 2 2 3 2 3 3 3 1 7 11 11 12 9 7 5 3 2 2 4 5 6 7 8 9 10 12 16 20 21 18 14 14 17 19 16 14 14 14 16 20 19 16 15 17 20 19
2 4 2 3 4 2 2 3 3 5 4 3 3 1 2 4 3 2 1 1 1 2 2 2 3 3 1 2 4 1 3 4 3 5 3 1 3 1 0 1 1 3 4 2 1 1 1 3 1 2 5 10 9 8 6 7 7 4 1 3 6 9 9 8 9 10 12 15 16 16 14 12 10 12 17 18 14 14 15 17 20 20 17 15 17 19 21 20
4 5 6 7 4 3 2 2 3 4 3 3 2 2 1 3 5 3 1 1 1 1 1 1 2 0 2 2 2 2 3 5 5 6 6 4 2 2 2 2 2 2 4 2 1 3 2 2 2 4 4 8 6 7 13 14 8 2 2 4 7 10 10 9 9 10 13 17 17 14 10 9 10 13 17 17 16 17 18 20 21 17 14 16 18 20 22 20
7 6 5 7 4 3 2 2 3 4 2 1 1 2 1 2 3 3 3 0 1 1 1 3 3 2 2 1 3 3 3 4 5 5 4 3 2 1 1 1 2 1 1 1 1 2 2 1 3 3 4 8 8 10 14 13 6 3 1 2 6 8 10 11 12 13 13 11 10 9 9 11 14 15 17 20 20 18 17 19 19 14 14 16 17 19 20 18
Wind_Direction
45 40 30 30 29 30 28 23 30 39 54 60 49 41 33 30 32 40 46 45 47 49 49 62 86 84 55 37 9 10 22 36 40 38 35 7 352 354 348 348 355 353 346 340 349 358 24 30 2 11 43 97 22 330 9 27 64 51 80 117 264 207 199 190 186 198 178 266 245 220 170 134 196 206 160 47 47 67 56 40 29 36 46 60 83 93 102 112
46 43 35 30 24 25 25 24 33 49 68 68 52 42 33 34 38 45 49 48 53 46 48 78 44 342 323 327 330 352 6 23 33 32 16 359 357 355 351 355 355 352 348 336 346 8 63 9 345 27 44 68 1 333 25 22 56 83 113 122 242 204 213 201 181 200 193 217 212 244 243 176 208 157 153 152 26 74 76 44 34 60 56 62 78 90 97 96
45 41 33 24 18 21 22 26 39 63 78 72 53 42 36 38 42 46 46 45 51 50 48 41 349 302 296 299 305 338 336 20 30 14 356 358 359 357 356 356 351 349 347 335 338 1 114 125 60 61 47 58 355 344 35 12 5 127 125 295 248 214 237 239 193 215 225 147 145 230 11 225 234 144 160 176 163 183 147 161 112 112 116 92 85 92 94 89
38 33 24 14 13 16 18 28 47 74 81 71 52 43 40 40 46 47 43 41 46 57 58 65 50 9 311 282 280 306 357 43 26 338 348 356 358 359 360 358 352 349 349 343 16 49 110 104 68 63 66 30 341 12 44 347 350 121 132 199 243 214 256 263 213 222 245 104 139 155 109 280 236 162 155 144 139 263 231 205 171 157 150 131 114 99 95 91
29 23 11 5 7 11 18 35 58 80 78 67 51 44 43 44 51 51 44 37 40 72 85 85 74 57 57 52 214 218 69 54 334 336 349 351 358 3 7 7 359 355 3 44 66 75 88 72 57 47 56 36 350 19 29 336 50 107 258 192 209 142 263 285 245 226 103 99 92 108 188 212 170 156 157 157 176 241 240 216 160 144 141 133 125 109 96 92
20 9 1 360 6 15 24 43 63 78 75 62 50 46 46 49 57 55 45 35 37 80 113 101 84 61 57 58 74 95 92 88 313 336 345 347 358 7 15 15 10 11 33 69 44 59 57 37 52 47 44 51 12 27 334 323 33 263 300 338 210 176 236 320 340 276 125 114 122 168 213 121 113 292 179 176 212 273 279 158 130 126 130 126 121 115 104 99
9 2 2 1 10 22 30 47 67 78 71 57 52 50 51 54 60 56 45 37 39 70 134 134 111 49 34 47 62 63 86 97 329 340 341 345 0 10 18 14 17 25 41 46 27 50 59 36 60 103 77 58 17 36 338 320 28 79 306 337 351 197 240 308 327 285 133 150 221 178 125 90 167 266 96 188 298 6 54 111 114 118 122 120 115 114 112 105
8 9 7 6 17 25 32 50 65 70 65 60 58 56 57 55 61 58 50 46 42 54 105 167 200 328 359 355 60 58 64 338 341 345 340 345 6 14 13 9 17 25 37 39 26 65 77 46 90 150 82 52 173 110 350 340 15 59 350 318 348 314 297 314 335 359 356 288 288 105 66 311 241 201 87 36 46 65 93 101 106 111 110 111 111 114 110 97
20 16 11 16 23 28 37 50 58 69 66 65 66 63 61 54 62 60 57 57 45 50 63 75 151 255 358 40 89 71 4 342 345 345 345 350 10 16 12 13 17 23 35 35 29 44 65 71 181 176 136 138 117 27 347 7 347 6 347 340 360 335 329 348 15 10 340 312 66 77 312 310 258 196 37 49 82 97 99 97 106 110 105 111 111 100 91 83
29 20 23 31 36 41 46 54 62 74 71 73 75 68 60 53 65 67 69 63 47 54 62 68 74 68 62 57 74 66 347 347 352 352 357 2 17 17 13 17 18 26 38 33 31 34 38 161 194 141 127 101 67 17 360 30 318 325 338 63 38 333 328 12 27 1 339 344 63 253 289 301 292 291 324 67 106 115 102 102 106 108 112 109 93 77 80 81
30 29 44 49 53 54 57 68 75 80 83 83 77 70 67 64 78 89 87 55 39 50 56 66 62 58 65 62 74 58 350 352 358 5 15 17 27 17 12 19 21 32 45 40 33 24 30 170 149 106 101 63 45 4 14 6 235 328 354 189 312 344 354 12 13 355 360 56 86 201 266 310 351 8 243 133 131 126 110 111 108 110 114 92 86 84 84 87
37 50 64 65 63 65 75 84 86 88 88 83 80 85 83 83 100 108 92 47 44 48 48 57 35 34 60 59 70 33 359 5 7 18 27 23 32 24 17 25 32 43 51 49 34 30 56 127 100 83 331 153 127 343 104 73 65 100 37 37 310 357 1 346 352 336 1 68 307 239 311 336 346 8 27 137 131 120 107 114 119 110 101 87 92 91 86 89
55 71 74 72 69 78 90 89 88 88 86 86 91 94 92 93 96 97 79 43 49 51 53 56 39 40 60 62 51 19 10 13 16 29 31 23 40 46 33 39 54 53 50 57 49 43 61 83 92 101 119 102 130 313 106 33 28 262 28 65 335 4 339 320 347 329 1 46 350 4 341 302 258 19 35 154 134 120 114 119 125 106 96 95 95 93 88 85
74 82 79 76 77 87 92 89 88 86 88 101 105 104 99 88 74 78 81 60 49 41 33 23 25 56 62 95 54 15 10 19 26 27 18 18 37 53 50 59 71 61 50 59 57 50 62 84 87 94 80 70 319 344 32 8 16 322 3 47 37 12 287 315 346 346 12 359 10 22 304 268 255 15 21 172 145 130 127 130 127 107 103 106 99 98 92 82
82 82 73 74 82 89 91 88 84 83 99 120 120 116 100 76 63 67 83 65 45 35 30 18 17 68 65 79 12 7 10 21 22 16 10 14 25 22 26 61 79 67 56 53 54 55 55 72 75 56 321 9 32 38 16 348 16 26 9 340 355 15 283 313 326 28 41 294 8 30 290 270 252 2 356 172 150 133 132 136 126 112 116 116 107 105 98 88
75 60 55 71 87 91 91 84 78 83 100 119 123 133 107 82 75 79 92 79 52 43 51 21 6 66 89 347 335 360 12 15 7 8 13 15 18 12 5 47 69 34 43 40 41 44 40 52 70 41 352 15 35 51 31 11 358 9 33 327 307 324 314 318 308 63 67 297 354 26 271 276 279 355 333 186 152 135 134 132 119 118 122 117 115 111 105 97
50 46 53 77 94 95 93 90 95 95 94 94 92 92 85 80 86 96 113 95 41 34 51 28 6 81 79 353 346 350 352 354 356 8 16 13 14 14 17 35 345 333 322 23 27 24 22 38 68 30 42 32 26 60 49 18 329 327 19 330 280 283 295 311 301 321 29 18 334 346 224 269 318 347 336 159 144 134 131 126 122 125 123 121 120 115 107 93
46 52 59 80 95 98 103 111 112 102 96 94 90 85 80 76 78 73 65 64 326 337 32 17 17 89 27 356 356 324 322 339 0 10 12 12 10 16 25 32 348 357 18 13 21 21 8 22 55 45 26 16 18 49 58 340 288 295 316 309 296 280 240 275 283 306 23 15 299 294 261 292 337 346 359 65 125 123 120 120 125 128 125 128 115 108 106 85
52 59 62 70 86 108 123 126 120 111 106 100 91 81 73 70 70 61 51 54 56 36 38 349 13 105 313 326 325 326 322 342 12 12 9 7 359 11 24 27 24 32 40 15 6 15 14 24 42 37 358 343 343 46 124 247 247 264 284 276 286 294 267 254 262 274 360 334 284 270 267 321 348 355 19 45 99 105 110 117 121 128 122 121 105 100 95 78
58 65 63 62 82 122 142 140 129 124 129 117 44 18 30 51 51 39 31 44 66 77 97 283 4 99 323 313 333 347 346 5 23 14 6 1 346 3 16 13 28 47 45 1 322 357 63 58 38 353 298 288 278 243 215 248 247 265 286 274 273 285 287 270 260 268 346 337 274 235 104 18 2 8 28 48 91 97 110 115 108 113 107 108 107 93 81 70
62 69 66 60 79 117 154 170 176 199 229 271 313 16 111 139 74 110 325 37 53 54 73 101 101 66 324 319 348 357 359 355 17 11 6 4 357 12 6 6 33 30 4 287 274 339 62 67 11 282 264 264 277 225 189 285 272 265 281 290 295 281 278 279 260 266 38 23 292 266 73 35 13 13 22 54 93 98 106 111 105 100 85 81 93 81 69 55
62 68 67 59 72 90 110 133 148 221 238 256 83 81 123 136 117 141 149 87 31 17 53 38 46 26 323 16 1 358 32 360 355 2 3 5 19 33 3 30 56 13 335 359 358 1 44 62 296 283 246 181 58 86 86 1 306 283 287 297 307 299 293 290 251 193 80 347 306 12 78 42 24 29 20 33 86 103 96 105 110 103 81 72 81 69 47 28
59 65 65 58 68 75 78 80 73 80 115 120 107 103 114 116 126 137 102 95 56 354 25 28 53 21 352 27 5 4 52 30 351 350 357 2 19 49 67 46 50 359 353 25 52 50 49 305 275 276 139 147 33 16 37 7 337 312 312 309 301 309 329 305 291 300 295 278 289 66 93 90 62 52 26 6 35 83 72 71 79 80 83 84 90 84 55 20
52 62 62 58 66 70 74 75 74 83 99 111 108 112 124 121 133 132 83 88 55 347 17 27 125 53 18 5 358 12 78 48 41 336 353 8 8 32 82 77 49 23 349 34 85 92 181 253 198 93 62 97 356 355 23 8 341 313 287 265 280 303 299 276 295 309 314 315 112 71 42 207 166 162 168 187 348 62 68 71 71 58 65 69 76 87 53 10
37 50 53 55 56 66 82 69 71 96 103 110 112 118 121 114 143 137 89 71 14 330 346 41 105 30 9 346 354 16 118 51 112 336 352 11 356 359 53 100 80 18 312 238 87 85 263 251 160 46 17 50 42 360 12 9 344 319 278 231 252 299 301 288 302 316 329 331 254 55 350 291 186 189 201 192 203 196 149 102 99 72 61 56 43 56 357 336
22 26 27 37 48 65 106 78 85 111 111 116 128 133 126 108 105 121 99 63 12 319 350 6 25 7 351 343 345 4 95 357 282 3 9 11 348 160 56 343 57 17 293 229 68 164 319 351 69 68 31 42 35 358 328 52 7 322 275 199 257 304 304 297 306 318 325 299 273 114 291 267 224 213 212 196 202 204 192 147 123 95 65 49 338 291 292 301
4 1 359 356 25 48 92 149 141 140 118 152 156 150 156 149 92 85 83 41 1 311 358 338 337 9 357 340 346 72 87 317 301 23 14 9 351 163 67 1 352 356 278 79 15 314 334 355 23 48 43 40 31 351 317 88 13 299 270 31 319 310 300 295 306 298 248 291 298 346 167 252 270 241 203 178 202 227 206 177 142 125 282 266 289 298 276 275
353 347 345 338 338 50 124 148 152 158 134 162 172 173 197 199 193 83 85 64 349 331 31 318 328 8 355 352 12 72 120 315 6 357 348 9 9 14 69 18 342 303 343 60 2 298 317 355 359 26 30 33 4 313 304 118 328 279 289 324 300 287 282 282 299 294 282 360 312 322 27 271 276 298 131 149 209 239 207 153 197 238 261 265 286 294 276 274
4 355 352 348 114 106 135 144 144 144 140 152 163 170 175 161 131 57 77 104 333 357 163 328 352 345 345 3 15 41 11 359 67 327 338 13 14 20 81 354 82 154 332 44 309 285 328 236 215 92 54 336 283 292 291 172 248 285 305 313 293 275 269 275 301 303 345 72 271 299 360 317 282 287 116 157 235 247 178 129 232 243 260 265 275 291 283 280
18 13 14 49 139 132 137 134 129 135 138 145 148 147 144 95 64 62 53 174 331 330 270 17 9 338 3 16 355 359 22 5 328 333 348 15 2 14 80 269 76 110 337 10 319 285 326 296 174 109 98 243 278 293 273 201 250 315 334 326 315 308 334 49 31 8 14 4 262 280 1 31 310 277 148 167 251 154 109 92 271 269 293 279 262 287 289 283
27 26 28 54 136 144 140 119 126 139 133 133 137 123 103 37 60 88 86 260 311 332 1 18 349 7 30 37 351 350 12 340 334 10 11 5 3 8 24 8 29 54 4 3 341 317 346 35 127 314 323 58 300 285 285 222 299 349 346 334 334 336 17 28 360 38 27 308 288 288 19 26 282 288 92 108 86 97 102 59 316 287 308 294 254 281 290 282
33 34 39 60 110 129 127 129 135 134 129 131 128 84 72 34 28 89 284 313 339 332 11 336 315 8 16 21 6 340 342 340 359 43 25 18 31 15 28 29 358 5 5 354 340 336 347 320 301 324 357 30 358 316 323 352 14 2 2 5 354 342 354 349 332 352 304 279 306 17 21 315 261 290 94 129 116 109 125 69 325 289 304 293 265 290 294 286
38 40 51 67 92 104 107 125 136 131 134 133 97 49 75 77 31 230 278 325 4 330 11 264 310 351 345 2 6 335 344 350 355 31 34 62 56 18 27 30 15 21 353 334 351 349 334 303 329 353 344 23 47 12 339 327 349 354 1 8 3 356 337 322 316 319 296 289 309 342 15 292 286 309 123 142 148 150 153 118 280 266 287 287 277 292 297 303
40 45 57 68 82 96 104 119 135 139 141 110 70 51 64 78 209 211 282 276 285 332 14 63 322 343 31 32 348 332 17 356 352 25 10 19 40 8 1 10 16 47 100 350 8 5 346 317 324 5 325 336 43 40 306 281 305 317 201 164 51 13 317 304 306 308 303 303 312 334 3 255 294 321 142 148 152 164 178 254 287 269 276 283 287 299 311 318
38 44 51 53 56 75 104 121 131 143 139 76 64 63 80 147 232 178 250 263 288 330 320 355 10 19 12 347 336 4 47 320 351 42 21 22 48 2 352 346 357 32 63 14 330 299 336 270 265 293 287 313 18 351 231 284 305 265 160 87 13 294 250 276 291 291 301 306 303 321 265 232 256 78 125 135 149 192 263 312 339 331 316 313 316 322 326 327
21 39 42 38 34 41 80 122 127 137 126 80 66 57 140 189 209 166 205 283 339 321 320 342 35 39 342 318 337 5 25 292 343 30 27 47 94 359 356 287 329 27 67 82 310 342 352 274 286 326 332 144 81 334 344 15 333 326 19 340 292 223 162 249 308 305 313 311 293 283 301 296 319 45 75 56 312 333 342 344 353 351 340 335 333 332 331 330
233 60 40 27 21 25 50 108 136 128 91 78 81 94 206 194 126 166 195 342 301 58 57 36 18 24 339 314 319 332 347 343 355 16 13 16 33 28 12 305 324 45 51 145 241 251 218 283 296 339 326 270 210 9 5 26 23 33 347 302 290 280 121 104 320 310 311 302 289 308 316 317 322 322 345 310 318 333 343 352 357 351 343 338 332 330 329 328
167 135 51 18 10 18 55 89 125 114 81 68 78 124 175 103 67 184 179 130 293 40 70 85 353 27 25 306 304 317 346 358 358 14 16 351 346 102 63 334 22 84 327 100 128 255 157 292 304 23 280 291 327 52 358 331 29 47 298 303 8 343 343 28 342 304 314 306 302 310 312 310 298 304 338 328 323 335 345 356 355 343 339 334 329 331 328 325
118 124 42 6 7 29 61 99 107 72 72 75 86 136 134 78 7 226 178 102 91 76 68 102 318 28 82 163 272 311 352 12 350 1 36 9 343 106 107 326 291 8 337 119 145 270 126 277 296 307 301 308 340 31 337 319 345 8 337 350 25 331 300 264 219 294 329 308 304 311 314 319 303 311 354 339 330 342 350 352 347 339 339 335 333 332 325 322
73 103 9 356 7 49 58 66 70 50 63 109 153 145 62 91 237 340 9 13 84 95 70 172 151 15 335 330 251 295 1 47 359 356 40 3 328 2 76 122 272 320 341 59 87 299 353 171 259 297 332 343 339 337 324 322 336 359 358 345 349 340 259 278 284 114 90 300 307 313 307 317 344 353 8 338 338 349 352 347 344 339 338 335 332 326 321 324
55 88 338 349 356 182 59 54 54 48 83 99 116 114 48 128 136 8 8 15 44 137 127 151 143 104 141 17 12 207 331 14 60 58 284 328 359 341 359 134 184 314 358 36 31 357 11 187 248 302 337 335 282 267 310 356 91 13 349 335 339 342 349 339 319 323 110 280 297 300 291 306 340 19 333 340 345 352 354 348 343 338 334 331 326 322 323 326
58 101 320 348 7 121 69 57 31 38 97 77 67 116 47 90 105 21 350 14 34 119 71 108 122 114 146 173 275 194 278 331 40 80 213 246 225 251 295 118 150 238 73 6 308 241 151 117 247 276 278 274 277 296 17 43 129 118 30 56 58 68 62 10 295 303 330 283 282 282 284 300 329 17 337 344 348 353 355 348 338 333 329 324 322 325 327 324
74 149 338 355 13 135 66 60 340 25 70 81 29 78 19 76 103 41 11 19 19 167 31 54 137 67 148 203 176 173 212 202 214 239 200 242 250 222 220 105 191 188 81 4 309 284 108 68 332 294 265 263 285 5 39 25 38 11 1 61 55 48 110 206 237 306 319 286 305 302 285 297 330 347 339 343 351 355 351 342 334 328 324 323 326 330 330 331
104 167 2 10 7 185 84 95 145 64 88 142 70 40 354 70 90 41 50 9 353 131 73 60 215 48 159 163 113 178 259 76 225 296 91 208 235 177 123 155 279 37 73 17 323 329 316 7 1 338 331 324 334 358 336 323 358 339 303 47 36 31 16 312 261 15 314 283 317 313 291 301 324 336 337 343 353 349 338 334 332 325 322 328 331 331 334 343
75 118 317 15 38 76 102 146 142 128 148 106 79 37 6 56 48 35 116 80 322 163 113 17 237 98 128 102 60 359 338 35 317 323 26 253 254 331 64 127 297 41 88 334 355 356 299 337 57 14 334 321 321 323 318 324 337 324 337 29 23 35 32 357 339 359 320 301 311 305 294 305 320 330 335 342 348 339 333 334 330 323 326 332 331 335 343 347
81 58 313 356 28 54 69 85 93 109 145 122 84 12 42 80 335 321 110 93 348 148 62 11 226 102 62 55 38 342 328 12 12 26 35 291 272 303 27 358 349 78 131 68 40 72 94 268 210 180 208 259 277 284 299 318 320 308 322 355 6 8 27 18 360 332 309 307 307 304 307 311 320 329 335 342 343 336 334 335 331 330 336 334 334 343 345 346
92 96 74 357 12 40 44 23 44 84 141 130 105 51 90 88 326 330 67 84 166 113 49 37 54 58 37 42 48 310 303 349 7 27 72 261 269 293 300 114 41 74 146 94 31 81 86 298 250 199 216 242 263 277 291 307 299 293 312 345 357 334 350 15 346 306 311 315 308 314 320 317 319 329 336 339 339 337 334 333 332 334 334 333 339 347 344 350
70 141 178 111 82 74 59 41 68 82 74 84 104 107 85 68 50 112 264 340 16 17 108 54 21 25 24 112 90 29 332 356 353 317 322 290 300 337 348 17 29 355 110 47 1 100 112 262 250 211 254 261 267 276 286 290 275 281 322 346 340 328 331 337 312 299 310 309 303 314 320 318 319 331 337 336 337 335 329 328 330 331 331 334 342 347 346 350
81 115 35 19 88 128 109 63 94 87 65 67 90 92 125 122 113 184 253 15 5 342 61 90 338 347 328 184 104 81 329 5 338 295 246 318 318 358 6 337 325 345 61 55 351 105 138 256 255 260 289 287 284 280 278 277 279 310 342 289 307 321 315 311 301 296 301 297 299 310 315 316 323 333 330 329 332 330 325 328 331 331 333 341 347 349 347 344
147 148 140 65 77 80 38 38 75 85 55 48 81 93 137 141 151 194 249 69 63 327 27 67 300 322 50 127 112 106 230 191 236 256 189 118 314 258 194 251 250 342 11 67 341 5 21 293 333 55 313 297 289 285 293 302 309 329 321 297 333 340 334 323 312 310 312 307 308 317 318 312 322 332 325 323 329 331 331 335 333 331 336 347 352 350 343 338
107 130 138 113 76 1 16 38 64 91 55 19 104 152 161 167 172 154 99 25 154 182 37 124 208 299 52 82 137 235 233 188 210 229 187 169 248 220 215 218 181 340 352 30 346 357 27 317 346 46 346 298 300 334 326 316 320 11 12 341 349 345 333 322 316 319 321 319 323 332 328 314 326 333 324 323 331 336 338 337 331 330 345 355 354 345 338 337
101 100 118 106 79 353 18 38 34 82 92 356 116 151 176 201 195 132 99 5 10 91 181 172 167 143 62 328 248 244 224 198 211 224 194 180 225 241 245 212 143 175 262 95 18 352 83 359 327 14 331 300 323 342 320 311 334 10 284 330 350 339 324 318 322 326 328 329 330 332 326 323 330 333 327 327 333 339 341 333 325 334 355 357 349 340 336 337